BREEZE-M DEB, 39988

Orbit data source: Space-Track

BREEZE-M DEB, 39988 is space debris in HEO originally from a launch on Fri, 14 Mar 2008 UTC launched from the Tyuratam Missile And Space Complex (TTMTR). Debris objects in space refer to the collection of defunct objects orbiting the Earth. Examples of debris include non-operational satellites, rocket bodies, and fragments generated from explosions, collisions, or faulty payload assembly.

Loading next visibility...
Identifier
39988, 2008-011DM
Orbit
HEO
Country
Flag of CISCIS
Related business
Manufacturer
Unknown
Mission
Spacecraft
Bus & Motor
Unknown
Mass
Unknown
Launch date (UTC)
2008-03-14 (18 years ago)
Launch vehicle
Unknown
Launch site
Tyuratam Missile And Space Complex (TTMTR)
Object type
Payload
Rocket body
Debris
Shape & HBR
Unknown shape, 0.6 m
Radar Cross Section
Medium (>0.1 m² and <1 m²)

Expand to show TLE details & history
Last TLE update: 11 months ago

TLE from 11 months ago
0 BREEZE-M DEB
1 39988U 08011DM  25198.08934632 -.00000072  00000-0  00000+0 0  9996
2 39988  49.0030  79.0366 5616967 252.3247  41.3112  2.86578779146867
Epoch: 2025-07-17T02:08Z
TLE epoch observation values (Epoch: 2025-07-17T02:08:39.522Z)
Latitude
-0.00004°
Longitude
111.7494°
Altitude
10,914.505 km
Speed
5.202 km/s
True Right ascension
05h 16m 17s
True Declination
0° 00' 00"
Sunlit
Object was in daylight at epoch
Visualization orbit readout
Latitude
Unknown
Longitude
Unknown
Altitude
Unknown
Speed
Unknown
Apparent Right ascension
Unknown
Apparent Declination
Unknown
Sunlit
N/A
Visualization observer readout
Local Sidereal Time
09:28:29
Azimuth
Unknown
Elevation
Unknown
Doppler factor
Unknown
Orbital elements
Apogee altitude
26,319.321 km
Perigee altitude
2,798.679 km
Semi-major axis
20,937.137 km
Eccentricity
0.5617
Inclination
49.003°
RAAN
79.0366°
Arg. of periapsis
252.3247°
True anomaly
107.70494°
Mean anomaly
41.3112°
Eccentric anomaly
71.90182°
Mean motion
0.71642 °/min
Orbital period
502.5 mins
BSTAR
0
Loading maneuver chart data...
Computing Atmospheric mass density...
Loading historical data...
Loading historical data...
Loading historical data...
Loading historical data...
Loading historical data...
Loading historical data...
Loading historical data...

Documentation

Showing up to 5 results
|